Weather History for KPBG - June, 2013

Change the Weather History Date:

Sunday, June 9, 2013

  Actual Average Record
Temperature  
Mean Temperature 67 °F 63 °F  
Max Temperature 78 °F 74 °F 92 °F (1959)
Min Temperature 55 °F 52 °F 36 °F (1980)
Degree Days  
Heating Degree Days 0 4  
Month to date heating degree days 42  
Since 1 June heating degree days 42  
Since 1 July heating degree days 7669  
Cooling Degree Days 2 2  
Month to date cooling degree days 22 11  
Year to date cooling degree days 42 19  
Since 1 June cooling degree days 22 11  
Growing Degree Days 16 (Base 50)    
Moisture  
Dew Point 54 °F    
Average Humidity 70    
Maximum Humidity 100    
Minimum Humidity 39    
Precipitation  
Precipitation T in - 1.73 in (2015)
Month to date precipitation 1.91  
Year to date precipitation 11.10  
Sea Level Pressure  
Sea Level Pressure 30.08 in    
Wind  
Wind Speed 5 mph (NW)    
Max Wind Speed 15 mph    
Max Gust Speed 24 mph    
Visibility 10 miles    
Events      
T = Trace of Precipitation, MM = Missing Value Source: NWS Daily Summary

Daily Weather History Graph

Daily Weather History Graph

Search for Another Location

Airport or City:

Trip Planner

Search our weather history database for the weather conditions in past years. The results will help you decide how hot, cold, wet, or windy it might be!

Date:

Astronomy

Jun. 09, 2013 Rise Set
Actual Time 5:08 AM EDT 8:38 PM EDT
Civil Twilight 4:31 AM EDT 9:14 PM EDT
Nautical Twilight 3:43 AM EDT 10:03 PM EDT
Astronomical Twilight 2:41 AM EDT 11:05 PM EDT
Moon 6:05 AM EDT (6/9) 9:19 PM EDT (6/9)
Length of Visible Light 16h 42m
Length of Day
15h 29m
New Moon, 1% of the Moon is Illuminated
Jun 9
New Moon
Jun 16
First Quarter
Jun 23
Full
Jun 30
Last Quarter
Jul 8
New

Hourly Weather History & Observations

Time (EDT) Temp. Dew Point Humidity Pressure Visibility Wind Dir Wind Speed Gust Speed Precip Events Conditions
12:53 AM 57.0 °F 55.9 °F 96% 30.01 in 10.0 mi Calm Calm - N/A   Overcast
1:53 AM 55.9 °F 55.0 °F 97% 30.02 in 9.0 mi Calm Calm - N/A   Overcast
2:53 AM 55.9 °F 55.0 °F 97% 30.03 in 10.0 mi Calm Calm - N/A   Overcast
3:53 AM 55.9 °F 55.0 °F 97% 30.03 in 10.0 mi Calm Calm - N/A   Overcast
4:53 AM 57.0 °F 55.0 °F 93% 30.03 in 10.0 mi Calm Calm - 0.00 in   Overcast
5:53 AM 55.9 °F 55.0 °F 97% 30.05 in 10.0 mi Calm Calm - N/A   Overcast
6:53 AM 60.1 °F 55.0 °F 83% 30.06 in 10.0 mi Calm Calm - N/A   Overcast
7:53 AM 59.0 °F 55.9 °F 90% 30.07 in 10.0 mi SSE 3.5 mph - N/A   Overcast
8:53 AM 61.0 °F 57.0 °F 87% 30.09 in 10.0 mi ESE 3.5 mph - N/A   Overcast
9:53 AM 66.0 °F 55.9 °F 70% 30.09 in 7.0 mi Variable 5.8 mph - N/A   Overcast
10:32 AM 69.8 °F 55.4 °F 60% 30.09 in 8.0 mi Variable 6.9 mph - N/A   Overcast
10:53 AM 70.0 °F 54.0 °F 57% 30.08 in 8.0 mi WNW 10.4 mph 18.4 mph N/A   Overcast
11:21 AM 71.6 °F 53.6 °F 53% 30.08 in 10.0 mi West 9.2 mph 19.6 mph N/A   Scattered Clouds
11:53 AM 73.0 °F 53.1 °F 49% 30.08 in 10.0 mi WNW 11.5 mph 18.4 mph N/A   Clear
12:53 PM 75.9 °F 52.0 °F 43% 30.06 in 10.0 mi Variable 5.8 mph - N/A   Partly Cloudy
1:53 PM 77.0 °F 50.0 °F 39% 30.07 in 10.0 mi NW 15.0 mph 24.2 mph N/A   Clear
2:53 PM 77.0 °F 50.0 °F 39% 30.07 in 10.0 mi WNW 10.4 mph 19.6 mph N/A   Partly Cloudy
3:53 PM 77.0 °F 50.0 °F 39% 30.07 in 10.0 mi NW 9.2 mph 17.3 mph N/A   Clear
4:53 PM 77.0 °F 50.0 °F 39% 30.07 in 10.0 mi NNW 12.7 mph 21.9 mph N/A   Clear
5:53 PM 77.0 °F 51.1 °F 40% 30.08 in 10.0 mi NW 8.1 mph - N/A   Scattered Clouds
6:53 PM 75.9 °F 50.0 °F 40% 30.09 in 10.0 mi NW 6.9 mph 16.1 mph N/A   Partly Cloudy
7:53 PM 71.1 °F 53.1 °F 53% 30.10 in 10.0 mi Calm Calm - N/A   Clear
8:53 PM 62.1 °F 55.0 °F 78% 30.12 in 10.0 mi Calm Calm - N/A   Clear
9:53 PM 57.0 °F 54.0 °F 89% 30.15 in 10.0 mi NNE 9.2 mph - N/A   Clear
10:53 PM 57.9 °F 54.0 °F 87% 30.17 in 10.0 mi West 5.8 mph - N/A   Clear
11:53 PM 57.0 °F 52.0 °F 83% 30.18 in 10.0 mi Calm Calm - N/A   Clear